Lid_Strength_Index
0 0 1 1 2 1 2 2 2 2 1 1 1 1 1 1 1 2 2 2 1 -2 -2 -2 -2 -2 -2 -2 -2 -2 -2 -2 -2 -2 -1 -1 -1 -1 -1 -1 -1 -0 -0
0 0 0 0 0 1 1 2 2 2 2 1 1 1 1 1 1 1 2 2 1 -0 -2 -2 -2 -2 -2 -2 -2 -2 -2 -2 -2 -2 -2 -1 -1 -1 -1 -1 -1 -1 -0
0 0 0 1 0 0 0 1 1 1 1 1 1 2 2 1 1 2 2 1 1 1 0 -1 -2 -2 -2 -2 -2 -2 -2 -2 -2 -2 -2 -2 -2 -1 -1 -1 -1 -1 -0
-0 0 1 1 0 0 0 1 1 1 1 1 2 2 1 2 2 1 1 1 1 1 1 0 -1 -2 -2 -2 -2 -2 -2 -2 -2 -2 -2 -2 -2 -2 -2 -2 -2 -1 -1
-0 -0 -0 -0 0 1 1 1 1 1 2 2 2 1 1 1 0 0 0 0 1 1 1 1 1 0 -1 -2 -2 -2 -2 -2 -2 -2 -2 -2 -2 -2 -2 -2 -2 -1 -1
0 0 0 0 0 0 1 1 1 1 1 1 1 1 1 0 -0 0 0 -0 0 0 1 1 1 2 2 -1 -2 -2 -2 -2 -2 -2 -1 -2 -2 -2 -2 -2 -2 -2 -1
2 2 1 1 1 1 1 1 1 2 2 1 2 2 1 1 1 1 1 1 1 0 0 0 1 0 1 -0 -1 -2 -2 -2 -2 -2 -1 -2 -2 -2 -2 -2 -2 -2 -2
6 6 5 4 4 3 3 2 2 2 2 1 3 3 5 4 3 2 1 1 1 1 0 0 0 0 1 1 1 -1 -2 -2 -2 -2 -2 -1 -1 -1 -1 -1 -2 -2 -1
9 8 8 6 6 5 6 5 5 3 3 2 2 3 6 6 4 3 2 2 1 1 1 1 0 1 0 0 0 -0 -1 -1 -1 -1 -1 -2 -2 -1 -1 -2 -2 -1 -2
10 9 8 7 7 6 6 5 4 4 3 3 1 1 1 2 5 6 4 2 2 1 2 2 2 1 1 1 2 3 2 1 0 -1 -1 -1 -1 -1 -1 -1 -1 -2 -2
10 10 9 9 8 8 7 7 6 5 5 4 4 2 2 3 4 4 6 4 3 2 1 1 0 1 1 0 0 2 2 2 1 1 1 -0 -1 -1 -1 -1 -1 -1 -1
11 11 10 10 9 9 8 8 7 6 6 6 6 6 6 6 6 6 6 6 5 4 5 2 1 0 0 1 3 5 4 3 1 0 1 1 0 -0 -1 -1 -1 -1 -1
13 13 12 11 10 9 8 8 7 7 7 8 8 8 7 7 7 8 8 9 9 8 5 5 3 4 5 5 6 7 5 5 4 3 2 1 1 0 0 -1 -1 -1 -1
13 12 12 11 10 9 9 8 9 9 9 9 9 9 8 8 8 8 8 9 11 9 8 8 5 7 7 7 7 6 7 6 4 4 2 2 1 1 1 0 -0 -0 -1
12 12 12 12 11 10 10 10 10 10 10 10 10 10 9 9 9 8 8 9 10 12 12 10 10 8 8 8 7 7 7 7 5 4 4 3 3 3 2 1 0 0 0
13 13 12 12 12 11 11 11 11 11 11 11 10 10 10 10 10 9 10 10 10 11 13 11 10 9 9 9 8 8 8 8 7 6 5 4 4 3 3 2 2 2 1
13 13 12 12 12 13 12 13 12 12 12 11 11 11 11 11 11 11 11 10 11 11 12 11 11 10 10 10 10 9 9 9 8 8 7 6 6 5 4 3 3 3 2
13 13 12 12 13 13 13 13 14 13 13 12 12 12 12 12 12 11 11 11 11 11 12 14 12 12 11 10 10 11 9 9 9 8 7 6 6 6 6 6 5 4 4
14 14 13 14 14 13 14 14 14 13 13 13 13 13 13 13 13 13 13 14 13 12 12 13 14 12 12 11 12 11 11 11 10 9 8 8 7 6 6 6 5 4 5
15 15 14 14 14 14 14 14 14 14 14 14 14 14 14 15 14 14 13 13 13 13 13 14 14 14 14 13 13 15 15 14 14 11 10 9 8 7 6 5 6 7 6
15 16 15 15 14 14 13 14 15 15 15 15 15 14 14 14 13 12 13 13 14 15 15 16 16 16 16 16 17 15 16 15 14 13 12 11 10 9 9 7 7 7 6
15 16 16 16 16 14 13 13 14 15 16 16 15 15 14 14 14 13 12 12 13 15 16 17 17 18 18 17 17 17 16 17 18 14 13 13 11 11 10 9 7 6 6
16 17 17 17 17 15 13 13 14 15 16 16 15 16 15 15 14 14 13 14 15 14 14 16 18 18 18 17 16 18 18 18 18 16 15 14 11 11 9 8 7 6 5
16 17 17 17 17 15 13 13 15 16 15 16 15 16 16 16 14 14 15 17 17 16 15 15 16 17 16 15 15 16 17 18 18 16 15 17 14 13 10 9 7 6 6
16 17 17 17 17 17 14 14 15 15 15 17 16 16 16 16 14 14 17 18 18 17 16 15 15 14 13 13 13 16 19 19 20 18 15 14 14 15 13 11 9 7 6
17 17 17 17 17 17 14 14 15 16 17 18 17 17 16 15 14 14 17 18 20 18 20 19 18 16 15 15 14 15 16 19 19 19 14 16 15 13 15 11 11 10 9